Location: McFarlands Corners
(41.4117°N, 81.3382°W)
Time: 14:17:28
(UTC+00:00)

Transit 2A - Pass Details

Date: 20 February 2026
Orbit: 590 x 954 km, 66.7° (Epoch: 7 March)

Event Time Altitude Azimuth Distance (km) Brightness Sun altitude
Rises 02:19:13 0° 330° (NNW) 3,557 10.0 -36.8°
Reaches altitude 10° 02:21:51 10° 332° (NNW) 2,572 9.2 -37.3°
Enters shadow 02:24:12 24° 335° (NNW) 1,716 8.1 -37.7°
